KD8NVS-13 Weather Reports


Display with metric or nautical units.
time (UTC)temp
F
wind
direction
speed
MPH
gust
MPH
rain 1hr
in
rain 24hr
in
rain mn
in
humidity
%
barometer
mb
20260508125736 53 204 4.0 4.0 0.00 0.00 0.00 61 1004.5
20260508125233 54 254 4.0 4.0 0.00 0.00 0.00 60 1004.2
20260508124731 53 258 3.0 3.0 0.00 0.00 0.00 60 1004.2
20260508124228 53 254 5.0 5.0 0.00 0.00 0.00 60 1004.2
20260508123726 53 267 3.0 3.0 0.00 0.00 0.00 61 1004.5
20260508123224 53 192 1.0 1.0 0.00 0.00 0.00 61 1004.5
20260508122719 52 266 3.0 4.0 0.00 0.00 0.00 63 1004.5
20260508122216 52 266 3.0 4.0 0.00 0.00 0.00 62 1004.2
20260508121714 51 264 1.0 1.0 0.00 0.00 0.00 63 1004.2
20260508121213 51 288 5.0 6.0 0.00 0.00 0.00 63 1004.2
20260508120709 51 288 5.0 6.0 0.00 0.00 0.00 63 1004.2
20260508120207 50 264 2.0 2.0 0.00 0.00 0.00 63 1004.2
20260508115705 50 264 4.0 4.0 0.00 0.00 0.00 64 1004.2
20260508115202 50 66 0.0 0.0 0.00 0.00 0.00 65 1004.2
20260508114658 50 240 3.0 3.0 0.00 0.00 0.00 65 1004.2
20260508114155 50 267 5.0 6.0 0.00 0.00 0.00 65 1004.2
20260508113652 49 210 2.0 2.0 0.00 0.00 0.00 65 1004.2
20260508113150 48 246 0.0 0.0 0.00 0.00 0.00 68 1004.2
20260508112646 48 246 2.0 2.0 0.00 0.00 0.00 69 1003.8
20260508112143 47 267 0.0 0.0 0.00 0.00 0.00 69 1003.8
20260508111639 47 267 2.0 2.0 0.00 0.00 0.00 71 1004.2
20260508111137 47 282 0.0 0.0 0.00 0.00 0.00 71 1003.8
20260508110635 46 182 2.0 2.0 0.00 0.00 0.00 72 1003.8
20260508110131 46 282 0.0 0.0 0.00 0.00 0.00 73 1003.8
20260508105626 46 192 1.0 1.0 0.00 0.00 0.00 74 1003.8
20260508105123 45 186 2.0 2.0 0.00 0.00 0.00 74 1003.8
20260508104621 45 186 0.0 0.0 0.00 0.00 0.00 75 1003.8
20260508104117 44 186 0.0 0.0 0.00 0.00 0.00 76 1003.8
20260508103615 44 186 0.0 0.0 0.00 0.00 0.00 76 1003.5
20260508103112 44 186 0.0 0.0 0.00 0.00 0.00 78 1003.5
20260508102609 43 186 0.0 0.0 0.00 0.00 0.00 78 1003.5
20260508102107 43 186 0.0 0.0 0.00 0.00 0.00 79 1003.8
20260508101604 42 186 0.0 0.0 0.00 0.00 0.00 81 1003.8
20260508101101 42 186 0.0 0.0 0.00 0.00 0.00 82 1003.8
20260508100559 42 186 0.0 0.0 0.00 0.00 0.00 84 1003.5
20260508100055 41 186 0.0 0.0 0.00 0.00 0.00 84 1003.5
20260508095553 41 186 0.0 0.0 0.00 0.00 0.00 85 1003.8
20260508095049 42 186 0.0 0.0 0.00 0.00 0.00 85 1003.8
20260508094547 42 186 0.0 0.0 0.00 0.00 0.00 85 1003.8
20260508094044 42 186 0.0 0.0 0.00 0.00 0.00 84 1003.8
20260508093541 42 186 0.0 0.0 0.00 0.00 0.00 83 1003.5
20260508093038 42 186 0.0 0.0 0.00 0.00 0.00 85 1003.8
20260508092535 42 186 0.0 0.0 0.00 0.00 0.00 85 1003.8
20260508092035 42 186 0.0 0.0 0.00 0.00 0.00 84 1003.5
20260508091531 42 186 0.0 0.0 0.00 0.00 0.00 84 1003.8
20260508091028 42 186 0.0 0.0 0.00 0.00 0.00 84 1003.8
20260508090526 42 186 0.0 0.0 0.00 0.00 0.00 85 1003.8
20260508090022 42 186 0.0 0.0 0.00 0.00 0.00 85 1003.8
20260508085519 42 186 0.0 0.0 0.00 0.00 0.00 85 1003.5
20260508085016 42 186 0.0 0.0 0.00 0.00 0.00 85 1003.5
20260508084513 42 186 1.0 1.0 0.00 0.00 0.00 83 1003.5
20260508084010 42 186 0.0 0.0 0.00 0.00 0.00 84 1003.8
20260508083507 42 186 0.0 0.0 0.00 0.00 0.00 85 1003.5
20260508083004 43 186 0.0 0.0 0.00 0.00 0.00 85 1003.8
20260508082459 43 186 0.0 0.0 0.00 0.00 0.00 84 1003.8
20260508081957 43 186 0.0 0.0 0.00 0.00 0.00 83 1003.8
20260508081454 43 186 0.0 0.0 0.00 0.00 0.00 82 1003.8
20260508080950 44 186 0.0 0.0 0.00 0.00 0.00 82 1003.8
20260508080448 44 186 0.0 0.0 0.00 0.00 0.00 81 1004.2
20260508075945 45 186 0.0 0.0 0.00 0.00 0.00 80 1003.8
20260508075442 45 186 0.0 0.0 0.00 0.00 0.00 77 1003.8
20260508074940 46 186 0.0 0.0 0.00 0.00 0.00 75 1004.2
20260508074437 47 186 0.0 0.0 0.00 0.00 0.00 74 1003.8
20260508073934 47 186 0.0 0.0 0.00 0.00 0.00 73 1003.8
20260508073431 48 186 0.0 0.0 0.00 0.00 0.00 71 1003.8
20260508072928 48 186 2.0 2.0 0.00 0.00 0.00 69 1004.2
20260508072424 48 186 2.0 2.0 0.00 0.00 0.00 71 1004.2
20260508071922 48 186 3.0 3.0 0.00 0.00 0.00 72 1004.2
20260508071420 48 186 2.0 2.0 0.00 0.00 0.00 72 1004.2
20260508070917 48 186 2.0 2.0 0.00 0.00 0.00 72 1004.2
20260508070415 48 186 3.0 4.0 0.00 0.00 0.00 73 1004.2
20260508065913 48 186 2.0 2.0 0.00 0.00 0.00 74 1004.2
20260508065410 48 186 0.0 0.0 0.00 0.00 0.00 72 1004.2
20260508064908 50 270 2.0 2.0 0.00 0.00 0.00 61 1003.8
20260508064405 50 270 2.0 2.0 0.00 0.00 0.00 61 1003.8
20260508063903 50 270 1.0 1.0 0.00 0.00 0.00 60 1003.8
20260508063401 49 270 0.0 0.0 0.00 0.00 0.00 64 1003.8
20260508062858 49 270 1.0 1.0 0.00 0.00 0.00 64 1003.5
20260508062355 49 270 1.0 1.0 0.00 0.00 0.00 64 1003.8
20260508061852 48 254 0.0 0.0 0.00 0.00 0.00 68 1003.8
20260508061349 47 254 0.0 0.0 0.00 0.00 0.00 69 1003.8
20260508060846 47 276 0.0 0.0 0.00 0.00 0.00 71 1004.2
20260508060344 46 276 0.0 0.0 0.00 0.00 0.00 72 1003.8
20260508055838 45 276 0.0 0.0 0.00 0.00 0.00 77 1003.8
20260508055336 45 276 0.0 0.0 0.00 0.00 0.00 80 1003.8
20260508054832 45 276 0.0 0.0 0.00 0.00 0.00 80 1003.8
20260508054330 44 276 0.0 0.0 0.00 0.00 0.00 82 1004.2
20260508053827 44 276 0.0 0.0 0.00 0.00 0.00 83 1004.2
20260508053324 44 276 0.0 0.0 0.00 0.00 0.00 82 1004.2
20260508052821 45 276 0.0 0.0 0.00 0.00 0.00 82 1003.8
20260508052318 45 276 0.0 0.0 0.00 0.00 0.00 82 1004.2
20260508051815 46 276 0.0 0.0 0.00 0.00 0.00 81 1004.2
20260508051310 46 276 0.0 0.0 0.00 0.00 0.00 80 1004.2
20260508050807 46 276 0.0 0.0 0.00 0.00 0.00 81 1004.2
20260508050304 46 276 0.0 0.0 0.00 0.00 0.00 82 1004.2
20260508045800 46 276 0.0 0.0 0.00 0.00 0.00 81 1003.8
20260508045257 46 276 0.0 0.0 0.00 0.00 0.00 80 1003.8
20260508044755 46 276 0.0 0.0 0.00 0.00 0.00 79 1004.2
20260508044251 46 276 0.0 0.0 0.00 0.00 0.00 78 1004.2
20260508043747 45 276 0.0 0.0 0.00 0.00 0.00 79 1004.2
20260508043245 45 276 0.0 0.0 0.00 0.00 0.00 81 1004.2
20260508042741 45 276 0.0 0.0 0.00 0.00 0.00 83 1004.2
20260508042239 44 276 0.0 0.0 0.00 0.00 0.00 83 1004.2
20260508041735 43 276 2.0 2.0 0.00 0.00 0.00 85 1004.2
20260508041232 43 276 0.0 0.0 0.00 0.00 0.00 87 1003.8
20260508040729 43 276 0.0 0.0 0.00 0.00 0.00 86 1004.2
20260508040226 43 276 0.0 0.0 0.00 0.00 0.00 85 1004.2
20260508035723 44 276 0.0 0.0 0.00 0.00 0.00 84 1004.2
20260508035221 44 276 0.0 0.0 0.00 0.00 0.00 84 1004.2
20260508034717 44 276 0.0 0.0 0.00 0.00 0.00 84 1004.2
20260508034215 44 276 0.0 0.0 0.00 0.00 0.00 84 1003.8
20260508033711 44 276 0.0 0.0 0.00 0.00 0.00 84 1004.2
20260508033210 44 276 0.0 0.0 0.00 0.00 0.00 84 1004.2
20260508032707 44 276 0.0 0.0 0.00 0.00 0.00 84 1003.8
20260508032204 44 276 0.0 0.0 0.00 0.00 0.00 83 1004.2
20260508031701 43 276 0.0 0.0 0.00 0.00 0.00 83 1004.2
20260508031157 44 276 0.0 0.0 0.00 0.00 0.00 83 1004.2
20260508030653 44 276 0.0 0.0 0.00 0.00 0.00 82 1004.2
20260508030151 44 276 0.0 0.0 0.00 0.00 0.00 81 1004.2
20260508025647 44 276 0.0 0.0 0.00 0.00 0.00 82 1004.2
20260508025144 44 276 0.0 0.0 0.00 0.00 0.00 81 1004.2
20260508024640 44 276 0.0 0.0 0.00 0.00 0.00 80 1004.2
20260508024138 44 276 0.0 0.0 0.00 0.00 0.00 79 1004.2
20260508023633 45 276 0.0 0.0 0.00 0.00 0.00 80 1004.2
20260508023132 45 276 0.0 0.0 0.00 0.00 0.00 78 1004.5
20260508022627 45 276 0.0 0.0 0.00 0.00 0.00 78 1003.8
20260508022124 45 276 0.0 0.0 0.00 0.00 0.00 78 1004.2
20260508021620 45 276 0.0 0.0 0.00 0.00 0.00 76 1004.2
20260508021116 45 276 0.0 0.0 0.00 0.00 0.00 76 1004.2
20260508020614 46 276 0.0 0.0 0.00 0.00 0.00 76 1004.2
20260508020111 46 276 0.0 0.0 0.00 0.00 0.00 75 1004.2
20260508015609 46 276 0.0 0.0 0.00 0.00 0.00 74 1004.2
20260508015105 46 276 0.0 0.0 0.00 0.00 0.00 73 1004.2
20260508014601 47 276 0.0 0.0 0.00 0.00 0.00 72 1004.2
20260508014058 47 276 0.0 0.0 0.00 0.00 0.00 70 1004.2
20260508013554 47 276 0.0 0.0 0.00 0.00 0.00 73 1004.2
20260508013051 47 276 0.0 0.0 0.00 0.00 0.00 70 1004.2
20260508012549 48 276 0.0 0.0 0.00 0.00 0.00 69 1004.2
20260508012046 48 276 0.0 0.0 0.00 0.00 0.00 68 1004.2
20260508011544 48 276 0.0 0.0 0.00 0.00 0.00 66 1004.2
20260508011041 49 276 0.0 0.0 0.00 0.00 0.00 65 1004.2
20260508010538 49 276 0.0 0.0 0.00 0.00 0.00 66 1003.8
20260508010036 50 276 0.0 0.0 0.00 0.00 0.00 65 1003.8
20260508005532 51 276 0.0 0.0 0.00 0.00 0.00 63 1003.5
20260508005029 52 276 0.0 0.0 0.00 0.00 0.00 59 1003.8
20260508004525 53 276 0.0 0.0 0.00 0.00 0.00 52 1003.8
20260508004021 54 276 0.0 0.0 0.00 0.00 0.00 48 1003.8
20260508003518 55 276 0.0 0.0 0.00 0.00 0.00 48 1003.5
20260508003016 55 276 2.0 2.0 0.00 0.00 0.00 46 1003.5
20260508002511 56 276 2.0 2.0 0.00 0.00 0.00 45 1003.5
20260508002009 57 276 2.0 2.0 0.00 0.00 0.00 43 1003.5
20260508001505 57 276 2.0 2.0 0.00 0.00 0.00 42 1003.5
20260508001001 58 276 1.0 1.0 0.00 0.00 0.00 41 1003.2
20260508000457 58 276 2.0 2.0 0.00 0.00 0.00 40 1003.5
20260507235954 58 276 2.0 2.0 0.00 0.00 0.00 39 1003.2
20260507235451 58 264 3.0 3.0 0.00 0.00 0.00 39 1003.5
20260507234949 58 266 2.0 2.0 0.00 0.00 0.00 39 1003.5
20260507234445 58 258 4.0 4.0 0.00 0.00 0.00 38 1003.5
20260507233941 58 264 5.0 6.0 0.00 0.00 0.00 38 1003.5
20260507233438 58 260 4.0 4.0 0.00 0.00 0.00 39 1003.5
20260507232937 58 258 5.0 6.0 0.00 0.00 0.00 38 1003.5
20260507232433 58 258 2.0 2.0 0.00 0.00 0.00 38 1003.5
20260507231930 58 254 5.0 5.0 0.00 0.00 0.00 38 1003.2
20260507231426 58 260 7.0 7.0 0.00 0.00 0.00 38 1003.2
20260507230923 59 248 4.0 4.0 0.00 0.00 0.00 37 1003.2
20260507230421 59 264 6.0 6.0 0.00 0.00 0.00 37 1003.5
20260507225921 59 248 5.0 6.0 0.00 0.00 0.00 37 1003.5
20260507225417 59 266 6.0 6.0 0.00 0.00 0.00 36 1003.5
20260507224913 58 282 7.0 8.0 0.00 0.00 0.00 36 1003.5
20260507224409 58 258 7.0 7.0 0.00 0.00 0.00 37 1003.5
20260507223906 57 270 6.0 6.0 0.00 0.00 0.00 37 1003.5
20260507223402 57 264 8.0 9.0 0.00 0.00 0.00 38 1003.5
20260507222859 57 276 7.0 7.0 0.00 0.00 0.00 39 1003.5
20260507222356 57 254 3.0 3.0 0.00 0.00 0.00 38 1003.5
20260507221853 57 258 6.0 6.0 0.00 0.00 0.00 39 1003.5
20260507221349 58 267 4.0 4.0 0.00 0.00 0.00 38 1003.5
20260507220845 58 258 10.0 11.0 0.00 0.00 0.00 38 1003.5
20260507220344 58 270 7.0 7.0 0.00 0.00 0.00 39 1003.8
20260507215839 59 250 7.0 8.0 0.00 0.00 0.00 38 1003.5
20260507215337 58 255 8.0 8.0 0.00 0.00 0.00 38 1003.2
20260507214834 58 264 2.0 2.0 0.00 0.00 0.00 39 1003.5
20260507214331 58 265 6.0 6.0 0.00 0.00 0.00 39 1003.5
20260507213826 57 253 5.0 5.0 0.00 0.00 0.00 40 1003.5
20260507213323 60 268 7.0 7.0 0.00 0.00 0.00 38 1003.2
20260507212820 60 270 8.0 10.0 0.00 0.00 0.00 37 1003.5
20260507212316 59 299 8.0 9.0 0.00 0.00 0.00 38 1003.2
20260507211813 59 276 7.0 8.0 0.00 0.00 0.00 38 1003.5
20260507211310 59 258 9.0 10.0 0.00 0.00 0.00 40 1003.2
20260507210806 58 261 5.0 5.0 0.00 0.00 0.00 40 1003.2
20260507210303 58 272 8.0 9.0 0.00 0.00 0.00 41 1003.2
20260507205759 58 264 8.0 8.0 0.00 0.00 0.00 41 1003.2
20260507205257 58 258 8.0 10.0 0.00 0.00 0.00 39 1003.2
20260507204753 58 260 9.0 10.0 0.00 0.00 0.00 38 1002.8
20260507204251 59 258 6.0 6.0 0.00 0.00 0.00 40 1002.8
20260507203748 59 270 6.0 6.0 0.00 0.00 0.00 38 1002.8
20260507203246 58 257 6.0 7.0 0.00 0.00 0.00 38 1002.8
20260507202742 58 250 9.0 10.0 0.00 0.00 0.00 39 1002.5
20260507202238 58 252 8.0 9.0 0.00 0.00 0.00 40 1002.8
20260507201733 58 258 6.0 6.0 0.00 0.00 0.00 40 1002.8
20260507201230 58 258 9.0 10.0 0.00 0.00 0.00 41 1003.2
20260507200726 58 258 9.0 11.0 0.00 0.00 0.00 40 1003.2
20260507200222 58 254 6.0 6.0 0.00 0.00 0.00 42 1002.8
20260507195719 58 258 4.0 5.0 0.00 0.00 0.00 42 1003.2
20260507195216 58 264 9.0 9.0 0.00 0.00 0.00 40 1002.8
20260507194713 58 252 6.0 7.0 0.00 0.00 0.00 40 1003.2
20260507194209 58 252 6.0 6.0 0.00 0.00 0.00 41 1003.2
20260507193706 58 258 9.0 10.0 0.00 0.00 0.00 41 1003.2
20260507193202 58 282 8.0 10.0 0.00 0.00 0.00 43 1003.2
20260507192658 58 276 10.0 11.0 0.00 0.00 0.00 43 1003.5
20260507192156 57 248 6.0 7.0 0.00 0.00 0.00 44 1003.2
20260507191651 58 250 9.0 10.0 0.00 0.00 0.00 44 1003.5
20260507191148 58 258 8.0 9.0 0.00 0.00 0.00 42 1003.5
20260507190645 58 276 7.0 8.0 0.00 0.00 0.00 43 1003.2
20260507190144 57 276 7.0 7.0 0.00 0.00 0.00 43 1003.5
20260507185642 58 255 7.0 7.0 0.00 0.00 0.00 43 1003.5
20260507185138 57 270 6.0 6.0 0.00 0.00 0.00 44 1003.2
20260507184636 57 258 11.0 12.0 0.00 0.00 0.00 44 1003.5
20260507184134 57 264 8.0 8.0 0.00 0.00 0.00 42 1003.2
20260507183630 57 253 10.0 10.0 0.00 0.00 0.00 43 1003.5
20260507183127 57 255 13.0 13.0 0.00 0.00 0.00 43 1003.5
20260507182624 56 254 7.0 8.0 0.00 0.00 0.00 43 1003.5
20260507182120 56 302 7.0 7.0 0.00 0.00 0.00 43 1003.5
20260507181617 56 276 8.0 8.0 0.00 0.00 0.00 41 1003.5
20260507181113 56 258 6.0 6.0 0.00 0.00 0.00 43 1003.5
20260507180609 57 270 12.0 14.0 0.00 0.00 0.00 42 1003.5
20260507180107 56 270 2.0 2.0 0.00 0.00 0.00 43 1003.2
20260507175602 56 281 8.0 9.0 0.00 0.00 0.00 42 1003.5
20260507175100 56 276 8.0 9.0 0.00 0.00 0.00 40 1003.5
20260507174557 56 252 7.0 7.0 0.00 0.00 0.00 41 1003.5
20260507174055 56 258 6.0 6.0 0.00 0.00 0.00 42 1003.5
20260507173552 56 264 4.0 5.0 0.00 0.00 0.00 42 1003.8
20260507173049 56 265 4.0 4.0 0.00 0.00 0.00 41 1003.8
20260507172544 56 258 10.0 12.0 0.00 0.00 0.00 42 1003.8
20260507172042 56 258 13.0 15.0 0.00 0.00 0.00 39 1004.2
20260507171537 56 258 8.0 10.0 0.00 0.00 0.00 43 1004.2
20260507171034 56 249 10.0 11.0 0.00 0.00 0.00 44 1004.2
20260507170531 57 258 6.0 6.0 0.00 0.00 0.00 44 1004.2
20260507170028 56 258 5.0 6.0 0.00 0.00 0.00 44 1003.8
20260507165524 55 282 6.0 6.0 0.00 0.00 0.00 44 1003.8
20260507165021 55 242 11.0 13.0 0.00 0.00 0.00 46 1004.2
20260507164517 55 266 6.0 6.0 0.00 0.00 0.00 48 1004.5
20260507164014 55 266 6.0 6.0 0.00 0.00 0.00 48 1004.5
20260507163511 55 270 6.0 6.0 0.00 0.00 0.00 45 1004.5
20260507163009 55 228 3.0 3.0 0.00 0.00 0.00 49 1004.2
20260507162503 55 288 3.0 4.0 0.00 0.00 0.00 48 1004.2
20260507162001 55 259 4.0 5.0 0.00 0.00 0.00 47 1004.5
20260507161456 55 281 10.0 11.0 0.00 0.00 0.00 45 1004.2
20260507160954 55 265 3.0 4.0 0.00 0.00 0.00 46 1004.2
20260507160449 55 264 7.0 7.0 0.00 0.00 0.00 46 1004.5
20260507155945 55 272 2.0 2.0 0.00 0.00 0.00 46 1004.2
20260507155442 55 270 5.0 6.0 0.00 0.00 0.00 48 1004.2
20260507154939 55 261 7.0 8.0 0.00 0.00 0.00 47 1004.2
20260507154435 54 254 0.0 0.0 0.00 0.00 0.00 50 1004.2
20260507153932 54 271 4.0 5.0 0.00 0.00 0.00 48 1003.8
20260507153429 54 258 3.0 3.0 0.00 0.00 0.00 48 1004.2
20260507152926 55 257 9.0 10.0 0.00 0.00 0.00 46 1004.2
20260507152422 55 276 3.0 3.0 0.00 0.00 0.00 50 1003.8
20260507151918 54 258 3.0 3.0 0.00 0.00 0.00 49 1003.8
20260507151415 54 266 3.0 3.0 0.00 0.00 0.00 48 1003.8
20260507150912 54 271 7.0 8.0 0.00 0.00 0.00 49 1003.8
20260507150408 54 265 4.0 4.0 0.00 0.00 0.00 48 1004.2
20260507145905 54 259 4.0 4.0 0.00 0.00 0.00 48 1004.2
20260507145401 54 258 8.0 9.0 0.00 0.00 0.00 50 1004.2
20260507144858 54 270 3.0 4.0 0.00 0.00 0.00 51 1004.2
20260507144355 53 255 7.0 7.0 0.00 0.00 0.00 51 1004.2
20260507143851 53 252 4.0 5.0 0.00 0.00 0.00 50 1004.2
20260507143349 53 267 5.0 6.0 0.00 0.00 0.00 52 1004.2
20260507142845 53 266 5.0 5.0 0.00 0.00 0.00 53 1004.2
20260507142342 53 282 4.0 4.0 0.00 0.00 0.00 55 1004.2
20260507141838 53 276 5.0 6.0 0.00 0.00 0.00 54 1004.2
20260507141335 53 258 6.0 6.0 0.00 0.00 0.00 55 1004.2
20260507140831 52 139 2.0 2.0 0.00 0.00 0.00 58 1004.2
20260507140328 52 270 4.0 4.0 0.00 0.00 0.00 56 1004.2
20260507135826 52 270 3.0 3.0 0.00 0.00 0.00 56 1004.2
20260507135323 52 254 3.0 3.0 0.00 0.00 0.00 58 1004.2
20260507134820 52 270 5.0 5.0 0.00 0.00 0.00 58 1004.2
20260507134316 51 276 4.0 4.0 0.00 0.00 0.00 59 1004.2
20260507133812 51 266 2.0 2.0 0.00 0.00 0.00 60 1004.5
20260507133308 51 260 5.0 6.0 0.00 0.00 0.00 59 1004.9
20260507132806 51 267 3.0 3.0 0.00 0.00 0.00 62 1004.9
20260507132306 50 258 2.0 2.0 0.00 0.00 0.00 63 1004.5
20260507131800 50 270 4.0 4.0 0.00 0.00 0.00 63 1004.5
20260507131256 50 252 4.0 4.0 0.00 0.00 0.00 65 1004.5
20260507130753 49 264 5.0 6.0 0.00 0.00 0.00 69 1004.5
20260507130251 49 267 4.0 5.0 0.00 0.00 0.00 70 1004.5